Weather in Fetinino

Russia / Vladimir Oblast     56°16′25″N   39°51′29″E
temp.,
°C
wind,
m/s
gust,
m/s
humid.,
%
clouds,
%
prec.,
mm/h
press.,
hPa
HPBL,
m
3 march, wed
wed300:00−2nnw6129389 0.2 1008551
03:00−6nw6138957 0.2 1011378
06:00−8nw6149230 0.0 1012368
09:00−7nw6129051 0.0 1013503
12:00−3nw6118933 0.0 1013751
15:00−1w599067 0.1 1012889
18:00−1w51290100 0.1 1010676
21:00−2w5129399 0.2 1008558
4 march, thu
thu400:00−2wsw61293100 0.1 1005638
03:00−1wsw61397100 1.0 1002693
06:00+1w81497100 1.5 998860
09:000wnw7149296 2.1 998931
12:00−1wnw7127388 0.5 9991152
15:00−1wnw598184 0.5 999992
18:00−5nnw3691100 0.0 1000150
21:00−7nw3391100 0.0 100147
5 march, fri
fri500:00−9nnw339496 0.0 100243
03:00−11nnw339678 0.0 100330
06:00−13nnw239611 0.0 100421
09:00−10nw12946 0.0 100577
12:00−6wsw128658 0.0 1006409
15:00−4wnw238879 0.3 1007489
18:00−6nw4989100 0.4 1008358
21:00−10wnw489253 0.4 1011152
6 march, sat
sat600:00−12wnw349526 0.0 101271
03:00−13nw349622 0.0 101449
06:00−13nnw379585 0.1 1015196
09:00−15nnw479367 0.1 1016230
12:00−11nw47860 0.0 1016560
15:00−9nw578148 0.1 1015954
18:00−12w239191 0.0 101536
21:00−13wsw349261 0.0 101475
7 march, sun
sun700:00−13sw489316 0.0 1012140
03:00−13ssw5129423 0.0 1008284
06:00−9ssw81593100 0.4 1003797
09:00−6sw91593100 1.4 9971085
12:00−4sw91493100 1.4 9941125
15:00−6wnw61085100 3.6 992908
18:00−10s348169 0.0 99333
21:00−8w6148183 0.3 994739